[[{"header":{"parameterUnit":"m.s-1","parameterCategory":1,"la1":30.2991,"la2":30.254,"lo1":-89.0895,"lo2":-89.0444,"dy":0.0017,"dx":0.0017,"nx":28,"ny":28,"refTime":"2025-06-14T03:00:00:Z","depth":0,"parameterNumber":2,"parameterNumberName":"U-component_of_WINDS"},"data":[0,0,0,0,0,0,0,0,0,0,0,0,0,0,0,0,0,0,0,0,0,0,0,0,0,0,0,0,0,0,0,0,0,0,0,0,0,0,0,0,0,0,0,0,0,0,0,0,0,0,0,0,0,0,0,0,0,0,0.4884,0.4882,0,0.4774,0.4773,0.4772,0.4714,0.4714,0.4714,0.4714,0.4608,0.4606,0.4603,0,0,0,0,0,0,0,0,0,0,0,0,0,0.5048,0.5045,0.4884,0.4882,0.4881,0.4774,0.4773,0.4771,0.4714,0.4714,0.4714,0.4714,0.4609,0.4606,0.4603,0,0,0,0,0,0,0,0,0,0,0,0,0,0.4961,0.5044,0.4884,0.4839,0.4834,0.4774,0.4773,0.4771,0.4714,0.4714,0.4714,0.4714,0.461,0.4606,0.4602,0.4581,0,0,0.459,0.4588,0,0,0,0,0,0,0,0,0.4966,0.4955,0.4847,0.4842,0.4836,0.4757,0.4792,0.4707,0.4714,0.476,0.4714,0.4713,0.4659,0.4651,0.4631,0.4576,0.4571,0.459,0.4587,0.4585,0.4584,0,0,0,0,0,0,0,0.4972,0.496,0.484,0.4846,0.4839,0.4826,0.4814,0.4776,0.4712,0.4756,0.4751,0.4739,0.4656,0.4635,0.4628,0.457,0.459,0.4586,0.4584,0.4582,0.4489,0.4489,0,0,0,0,0,0,0.4985,0.4965,0.4844,0.4837,0.4902,0.4823,0.4809,0.4783,0.4712,0.4701,0.4739,0.4737,0.4642,0.4632,0.4624,0.4591,0.4586,0.4582,0.4579,0.4489,0.4489,0.4489,0,0,0,0,0,0,0.4988,0.4974,0.4848,0.49,0.4883,0.4821,0.4792,0.4781,0.476,0.4699,0.4688,0.4729,0.4641,0.4629,0.4591,0.4587,0.458,0.4576,0.4489,0.4489,0.4489,0.4528,0,0,0,0,0,0,0.4993,0.4976,0.4966,0.49,0.488,0.4816,0.4791,0.4779,0.4752,0.4748,0.4687,0.4677,0.464,0.4597,0.4587,0.4581,0.4573,0.4489,0.4489,0.4489,0.4527,0.4529,0.4531,0,0,0,0,0,0.4999,0.4984,0.4966,0.4952,0.4866,0.4816,0.4805,0.4761,0.4752,0.4742,0.4703,0.4678,0.4589,0.4594,0.4581,0.4575,0.4489,0.4489,0.4489,0.4526,0.4529,0.4531,0,0,0,0,0,0,0.5055,0.4975,0.4954,0.4916,0.4873,0.4806,0.4792,0.4766,0.4726,0.4724,0.4674,0.4661,0.4626,0.4597,0.4603,0.4549,0.4537,0.4534,0.4569,0.4571,0.4573,0.4581,0.457,0,0,0,0,0,0.5062,0.5026,0.4959,0.4932,0.4911,0.4855,0.4832,0.4801,0.4755,0.4738,0.4696,0.4654,0.4615,0.4592,0.4554,0.4522,0.4507,0.4512,0.4514,0.4516,0.4514,0.4493,0.4493,0.4488,0.4488,0.4488,0,0,0.5078,0.503,0.5011,0.4942,0.4904,0.4869,0.4841,0.4805,0.4778,0.4733,0.4692,0.466,0.461,0.4574,0.4556,0.4548,0.4512,0.4516,0.4518,0.4515,0.4493,0.4493,0.4494,0.4488,0.4488,0.4488,0,0,0.5088,0.5049,0.502,0.4982,0.4925,0.4888,0.4881,0.4817,0.4793,0.4751,0.4715,0.4684,0.462,0.4585,0.4559,0.4552,0.4528,0.4541,0.4553,0.4533,0.4533,0.4534,0.4529,0.4529,0.454,0.454,0.454,0,0.5116,0.5059,0.501,0.4974,0.4944,0.4899,0.487,0.4836,0.4771,0.4752,0.4744,0.4661,0.4624,0.4578,0.4575,0.4557,0.4547,0.4548,0.4537,0.4537,0.4536,0.4531,0.453,0.4542,0.4542,0.4541,0.4541,0,0.5094,0.5055,0.5039,0.4973,0.4942,0.491,0.4857,0.4832,0.4804,0.4768,0.4725,0.4678,0.4629,0.4616,0.459,0.4565,0.4562,0.4546,0.4533,0.4539,0.4534,0.4532,0.4545,0.4544,0.4543,0.4543,0,0,0.5137,0.5041,0.5036,0.5004,0.4937,0.4906,0.4873,0.4821,0.4799,0.4756,0.4725,0.4671,0.4655,0.4625,0.4595,0.4577,0.4572,0.4563,0.4561,0.4565,0.454,0.4551,0.455,0.4556,0.4555,0.4555,0.4544,0,0.5136,0.507,0.5023,0.4976,0.4938,0.4893,0.4864,0.4819,0.4784,0.4749,0.4711,0.4672,0.4655,0.4636,0.4617,0.4577,0.4566,0.4577,0.4528,0.4527,0.454,0.4548,0.456,0.4551,0.4542,0.4541,0.4541,0,0.5126,0.5079,0.5027,0.496,0.4943,0.4916,0.4864,0.483,0.4779,0.4755,0.472,0.4688,0.4651,0.4641,0.4589,0.4597,0.4574,0.4552,0.455,0.4543,0.4534,0.454,0.4548,0.4546,0.4538,0.4538,0.4538,0,0.516,0.5085,0.5042,0.5017,0.4939,0.4921,0.4888,0.4836,0.4807,0.4762,0.4743,0.4696,0.467,0.4635,0.4591,0.4588,0.4543,0.453,0.4522,0.4523,0.4514,0.4515,0.4517,0.4501,0.4501,0.4501,0.4501,0,0.5163,0.5132,0.5056,0.503,0.4994,0.4942,0.4908,0.4872,0.4826,0.4793,0.4753,0.4723,0.4667,0.4631,0.4597,0.4558,0.4547,0.4527,0.4518,0.4529,0.4532,0.4513,0.4512,0.4501,0.4501,0.4501,0.4501,0,0.5194,0.5142,0.5093,0.5021,0.5002,0.4979,0.4918,0.4892,0.4854,0.4812,0.48,0.4741,0.4696,0.4648,0.4589,0.4566,0.4528,0.4516,0.4544,0.4538,0.4532,0.4533,0.4522,0.4517,0.4506,0.4506,0.4507,0,0.5199,0.5173,0.5097,0.507,0.5037,0.4996,0.4965,0.4912,0.4882,0.482,0.4801,0.4752,0.471,0.4641,0.4594,0.4548,0.4534,0.4533,0.4527,0.4538,0.4532,0.4533,0.453,0.4535,0.4535,0.4536,0.4536,0,0.5211,0.5185,0.5141,0.5087,0.505,0.5006,0.496,0.4942,0.488,0.4849,0.48,0.4767,0.4704,0.4656,0.4603,0.4571,0.4543,0.4538,0.4533,0.4544,0.4561,0.455,0.4548,0.4539,0.4538,0.4538,0.4538,0.4538,0.5228,0.5202,0.5143,0.5094,0.5054,0.5011,0.4982,0.4938,0.4896,0.4838,0.481,0.4762,0.471,0.4636,0.4604,0.4566,0.4558,0.4552,0.455,0.4549,0.4551,0.4567,0.4557,0.4557,0.4556,0.4556,0.4556,0,0.5236,0.5195,0.5151,0.5086,0.5048,0.5022,0.497,0.494,0.4896,0.4849,0.4807,0.4751,0.4704,0.4652,0.4602,0.4581,0.4567,0.457,0.457,0.4563,0.4562,0.457,0.4582,0.4582,0.4582,0.4582,0.4582,0.4582,0.5236,0.519,0.5157,0.5091,0.5051,0.5,0.4972,0.4933,0.4894,0.4832,0.4791,0.4756,0.4707,0.4652,0.4608,0.4594,0.4577,0.4583,0.4566,0.4565,0.4563,0.4562,0.4569,0.458,0.458,0.457,0.4569,0.4569]},{"header":{"parameterUnit":"m.s-1","parameterCategory":1,"la1":30.2991,"la2":30.254,"lo1":-89.0895,"lo2":-89.0444,"dy":0.0017,"dx":0.0017,"nx":28,"ny":28,"refTime":"2025-06-14T03:00:00:Z","depth":0,"parameterNumber":3,"parameterNumberName":"V-component_of_WINDS"},"data":[0,0,0,0,0,0,0,0,0,0,0,0,0,0,0,0,0,0,0,0,0,0,0,0,0,0,0,0,0,0,0,0,0,0,0,0,0,0,0,0,0,0,0,0,0,0,0,0,0,0,0,0,0,0,0,0,0,0,3.7493,3.7493,0,3.748,3.748,3.748,3.747,3.747,3.747,3.747,3.7449,3.7448,3.7448,0,0,0,0,0,0,0,0,0,0,0,0,0,3.7505,3.7505,3.7493,3.7493,3.7493,3.748,3.748,3.748,3.7471,3.747,3.747,3.747,3.7449,3.7448,3.7448,0,0,0,0,0,0,0,0,0,0,0,0,0,3.7497,3.7505,3.7493,3.7487,3.7486,3.748,3.748,3.748,3.7471,3.747,3.747,3.747,3.7449,3.7448,3.7448,3.7444,0,0,3.7445,3.7445,0,0,0,0,0,0,0,0,3.7497,3.7496,3.7488,3.7487,3.7487,3.7477,3.7477,3.7468,3.7471,3.7476,3.747,3.747,3.7458,3.7456,3.7454,3.7443,3.7442,3.7445,3.7445,3.7444,3.7444,0,0,0,0,0,0,0,3.7498,3.7497,3.7488,3.7488,3.7487,3.7483,3.7482,3.7475,3.7467,3.7476,3.7475,3.7474,3.7457,3.7454,3.7453,3.7442,3.7445,3.7444,3.7444,3.7444,3.7433,3.7433,0,0,0,0,0,0,3.75,3.7497,3.7488,3.7488,3.7492,3.7483,3.7482,3.748,3.7467,3.7466,3.7474,3.7474,3.7456,3.7454,3.7452,3.745,3.7444,3.7444,3.7443,3.7433,3.7433,3.7433,0,0,0,0,0,0,3.7501,3.75,3.7489,3.7492,3.7491,3.7483,3.7481,3.748,3.7477,3.7466,3.7464,3.7473,3.7456,3.7453,3.7448,3.7449,3.7443,3.7443,3.7432,3.7433,3.7433,3.7445,0,0,0,0,0,0,3.7501,3.75,3.7499,3.7493,3.7491,3.7486,3.7481,3.748,3.7477,3.7476,3.7465,3.7463,3.7455,3.7449,3.7447,3.7448,3.7442,3.7432,3.7433,3.7433,3.7444,3.7445,3.7447,0,0,0,0,0,3.7502,3.75,3.7499,3.7498,3.749,3.7486,3.7485,3.7479,3.7477,3.7476,3.747,3.7463,3.745,3.7449,3.7446,3.7447,3.7432,3.7433,3.7433,3.7444,3.7445,3.7446,0,0,0,0,0,0,3.7502,3.7499,3.7498,3.7495,3.7492,3.7485,3.7482,3.748,3.7474,3.7473,3.7464,3.7462,3.7458,3.7452,3.7451,3.7446,3.744,3.744,3.7449,3.7451,3.7452,3.7453,3.7441,0,0,0,0,0,3.7503,3.7502,3.7498,3.7496,3.7495,3.749,3.7487,3.7484,3.7479,3.7476,3.7469,3.7463,3.7458,3.7454,3.7448,3.7444,3.7442,3.7444,3.7445,3.7446,3.7445,3.7446,3.7447,3.7434,3.7434,3.7434,0,0,3.7502,3.7501,3.75,3.7496,3.7493,3.7492,3.7488,3.7485,3.7484,3.7475,3.7471,3.7466,3.7458,3.7455,3.7452,3.7449,3.7449,3.7446,3.7447,3.7446,3.7447,3.7448,3.7449,3.7435,3.7435,3.7435,0,0,3.7501,3.75,3.7499,3.7498,3.7496,3.7493,3.7493,3.7488,3.7486,3.7483,3.7478,3.7475,3.7465,3.7461,3.7458,3.7462,3.7456,3.746,3.7465,3.7466,3.7467,3.7468,3.7471,3.7472,3.746,3.746,3.746,0,3.75,3.75,3.7498,3.7498,3.7498,3.7495,3.7494,3.7492,3.7486,3.7485,3.7483,3.7475,3.7469,3.7466,3.7468,3.7464,3.7465,3.746,3.7468,3.7468,3.7469,3.7472,3.7473,3.7461,3.7461,3.7461,3.7461,0,3.7499,3.75,3.7499,3.75,3.7499,3.7498,3.7496,3.7496,3.7494,3.7491,3.749,3.7484,3.7479,3.7478,3.7473,3.7475,3.7474,3.747,3.7464,3.7471,3.7474,3.7474,3.7462,3.7461,3.7461,3.7461,0,0,3.7493,3.7498,3.7498,3.75,3.75,3.7499,3.7499,3.7499,3.7499,3.7496,3.7496,3.7492,3.749,3.7486,3.7482,3.7483,3.7489,3.7479,3.7478,3.7482,3.7493,3.7496,3.7497,3.7486,3.7486,3.7487,3.7494,0,3.7493,3.7496,3.7498,3.75,3.7501,3.7501,3.7502,3.7502,3.7501,3.75,3.7498,3.7496,3.7492,3.7491,3.7492,3.7488,3.7491,3.7488,3.7485,3.7485,3.7488,3.7498,3.7501,3.7508,3.7495,3.7495,3.7495,0,3.7491,3.7494,3.7498,3.7503,3.7503,3.7504,3.7506,3.7506,3.7506,3.7505,3.7505,3.7502,3.7502,3.7499,3.75,3.7497,3.7497,3.7496,3.7496,3.7494,3.749,3.7498,3.751,3.7511,3.7496,3.7496,3.7496,0,3.7488,3.7493,3.7497,3.7499,3.7503,3.7505,3.7506,3.7507,3.7508,3.7509,3.751,3.7509,3.7508,3.7508,3.7505,3.7503,3.7507,3.7502,3.7506,3.7506,3.7506,3.7506,3.7518,3.7506,3.7506,3.7506,3.7505,0,3.7487,3.7489,3.7497,3.7499,3.7503,3.7505,3.7508,3.7509,3.7511,3.7513,3.7512,3.7514,3.7511,3.7512,3.7509,3.7512,3.7511,3.751,3.7509,3.751,3.7511,3.7509,3.7508,3.7506,3.7506,3.7506,3.7506,0,3.7483,3.7489,3.7494,3.7501,3.7503,3.7505,3.751,3.7512,3.7514,3.7517,3.7517,3.7518,3.752,3.7519,3.7518,3.7518,3.7521,3.7519,3.7522,3.7522,3.7526,3.7526,3.7538,3.754,3.7526,3.7526,3.7526,0,3.7482,3.7485,3.7494,3.7498,3.7502,3.7506,3.7509,3.7512,3.7515,3.7519,3.7521,3.7524,3.7526,3.7529,3.7529,3.753,3.7528,3.7533,3.7528,3.753,3.753,3.753,3.7531,3.7533,3.7533,3.7533,3.7533,0,3.7479,3.7484,3.7489,3.7498,3.7503,3.7508,3.7513,3.7515,3.752,3.7523,3.7527,3.753,3.7534,3.7537,3.7539,3.7539,3.7537,3.7536,3.7537,3.7537,3.7539,3.754,3.7525,3.7535,3.7535,3.7534,3.7534,3.7534,3.7477,3.7482,3.7491,3.7499,3.7505,3.7511,3.7515,3.752,3.7524,3.7531,3.7532,3.7537,3.7541,3.7545,3.7545,3.7549,3.7547,3.7548,3.7548,3.7549,3.755,3.754,3.7549,3.7549,3.7549,3.7549,3.7549,0,3.7476,3.7484,3.7491,3.7502,3.7508,3.7511,3.7518,3.7523,3.7529,3.7534,3.7539,3.7546,3.755,3.7553,3.7557,3.756,3.7559,3.7561,3.756,3.7561,3.7551,3.755,3.7561,3.7561,3.7561,3.7561,3.7561,3.7561,3.7476,3.7485,3.7491,3.7503,3.751,3.7519,3.7523,3.7529,3.7534,3.7544,3.7549,3.7553,3.7557,3.7563,3.7567,3.7568,3.7569,3.7571,3.7572,3.7562,3.7561,3.7559,3.7559,3.7572,3.7572,3.7581,3.7581,3.7581]}]]